Zurück zum Katalog

BREEZE-M R/B

AktivHEO
NORAD 42935·ROCKET BODY·🇷🇺 Russia

Gestartet Sep 11, 2017 von Baikonur Cosmodrome

Loading…

Nächste Überflüge (nächste 24 Stunden)

TLE

AktuellSource: Space-Track

Epoche: Sep 14, 2026, 06:04 UTC

1 42935U 17053B   26257.25343911 -.00000141  00000-0  00000-0 0  9996
2 42935  23.6328  36.6895 5943898 353.8564   1.1210  2.19135350 72100

Verfolge BREEZE-M R/B in Echtzeit mit AllMySat

Download on the App Store